Weather in Sofiivka

Ukraine / Zaporizhia Region     46°59′10″N   36°40′05″E
temp.,
°C
wind,
m/s
gust,
m/s
humid.,
%
clouds,
%
prec.,
mm/h
press.,
hPa
HPBL,
m
16 september, thu
thu1600:00+15n473371 0.0 1016104
03:00+13n464387 0.0 101691
06:00+12nne354785 0.0 101769
09:00+18nne563229 0.0 1016460
12:00+23nne55235 0.0 10161579
15:00+24nne542116 0.0 10162016
18:00+21n462538 0.0 1016177
21:00+16nne34324 0.0 101748
17 september, fri
fri1700:00+14nne46390 0.0 101888
03:00+13ne34430 0.0 101849
06:00+12ne33465 0.0 101730
09:00+19e33325 0.0 1017377
12:00+23se32255 0.0 10161793
15:00+24sse53265 0.0 10152033
18:00+20s46375 0.0 1015273
21:00+15sw1159100 0.0 101511
18 september, sat
sat1800:00+14ssw0160100 0.0 101410
03:00+14se126275 0.0 101410
06:00+13ese22625 0.0 101410
09:00+20se35459 0.0 1014675
12:00+24s653594 0.0 10131463
15:00+23s564297 0.0 10131297
18:00+20sse356392 0.0 1012235
21:00+17ese2277100 0.0 101333
19 september, sun
sun1900:00+19ese2470100 0.0 1012131
03:00+18se2468100 0.0 1011113
06:00+18sse2280100 0.0 101146
09:00+21ssw565097 0.0 1011710
12:00+22s565699 0.0 10111367
15:00+23ssw675296 0.1 10101295
18:00+20s477589 0.4 1009629
21:00+18ssw228998 0.9 100937
20 september, mon
mon2000:00+16wsw33890 0.2 100943
03:00+15wsw34870 0.2 100966
06:00+14wsw41085100 0.0 1009193
09:00+19wsw586093 0.0 1010468
12:00+24sw583327 0.0 10101719
15:00+22sw10104799 0.0 10101459
18:00+18ssw4770100 0.1 1010621
21:00+16ssw3683100 1.1 1009510